Temp
-11 -11 -11 -11 -11 -11 -11 -11 -10 -10 -10 -10 -10 -10 -10 -10 -10 -10 -10 -10 -10 -10 -10 -10 -10 -9 -9 -10 -10 -10 -10 -10 -10 -9 -9 -9 -9 -9 -9 -9 -9 -9 -9 -8 -8 -8 -8 -8 -8
-11 -11 -11 -11 -11 -11 -11 -10 -11 -10 -10 -10 -10 -10 -10 -10 -10 -10 -10 -10 -10 -10 -10 -10 -10 -10 -10 -10 -10 -10 -10 -10 -10 -10 -9 -9 -9 -9 -9 -9 -9 -9 -9 -9 -8 -8 -8 -8 -8
-11 -11 -11 -11 -11 -11 -11 -10 -10 -10 -10 -10 -10 -10 -10 -10 -10 -10 -10 -10 -10 -10 -10 -10 -10 -10 -10 -10 -10 -10 -10 -10 -10 -10 -10 -10 -9 -10 -9 -9 -9 -9 -9 -9 -8 -8 -8 -8 -8
-11 -11 -11 -11 -11 -11 -11 -11 -11 -10 -10 -11 -10 -10 -10 -10 -10 -10 -10 -10 -10 -10 -10 -10 -10 -10 -10 -10 -10 -10 -10 -10 -10 -10 -10 -10 -10 -10 -10 -10 -10 -10 -10 -9 -9 -8 -8 -8 -8
-11 -11 -11 -11 -11 -11 -11 -11 -11 -11 -11 -11 -10 -11 -11 -10 -10 -10 -10 -10 -11 -10 -10 -10 -10 -10 -10 -10 -10 -10 -10 -10 -10 -10 -10 -10 -10 -10 -10 -10 -10 -10 -10 -10 -9 -9 -8 -8 -8
-12 -11 -11 -11 -11 -11 -11 -11 -11 -11 -11 -11 -11 -11 -11 -10 -10 -11 -11 -11 -10 -11 -11 -10 -10 -10 -11 -11 -10 -10 -10 -10 -11 -11 -10 -10 -10 -10 -10 -10 -10 -10 -10 -10 -10 -10 -9 -9 -8
-12 -12 -12 -12 -12 -11 -12 -11 -11 -11 -11 -11 -11 -11 -11 -10 -12 -11 -11 -11 -11 -10 -11 -11 -11 -10 -10 -10 -11 -11 -10 -10 -11 -11 -11 -11 -11 -10 -11 -10 -10 -10 -10 -10 -10 -10 -10 -9 -9
-12 -12 -12 -12 -12 -12 -12 -12 -12 -12 -13 -12 -13 -12 -12 -11 -11 -12 -12 -12 -12 -11 -11 -12 -11 -11 -11 -10 -10 -11 -11 -11 -11 -11 -11 -11 -11 -11 -10 -11 -11 -10 -10 -10 -10 -10 -10 -10 -9
-12 -12 -12 -12 -12 -12 -12 -12 -13 -14 -14 -14 -15 -15 -13 -13 -14 -13 -14 -14 -13 -13 -12 -13 -12 -12 -12 -11 -11 -11 -11 -11 -11 -11 -11 -11 -11 -11 -10 -10 -11 -11 -10 -10 -10 -10 -10 -10 -10
-12 -13 -12 -12 -12 -12 -13 -14 -14 -14 -15 -15 -15 -15 -15 -15 -15 -15 -15 -15 -15 -15 -14 -14 -13 -13 -13 -12 -12 -11 -12 -11 -12 -12 -12 -11 -11 -11 -11 -11 -10 -11 -11 -10 -10 -10 -10 -11 -10
-13 -13 -13 -13 -12 -13 -14 -14 -15 -15 -15 -15 -15 -15 -14 -14 -14 -14 -15 -15 -15 -15 -15 -15 -15 -15 -14 -13 -13 -12 -12 -12 -13 -12 -12 -12 -12 -11 -11 -11 -11 -11 -11 -11 -10 -10 -10 -11 -11
-13 -13 -13 -13 -13 -14 -15 -15 -15 -15 -15 -15 -14 -14 -14 -14 -15 -15 -15 -15 -15 -16 -16 -16 -16 -15 -16 -15 -14 -13 -13 -13 -13 -13 -13 -12 -12 -12 -11 -11 -11 -11 -11 -11 -10 -10 -11 -10 -11
-13 -13 -13 -13 -14 -15 -15 -15 -15 -15 -14 -14 -14 -14 -14 -15 -15 -16 -17 -17 -17 -17 -17 -17 -17 -17 -16 -17 -16 -15 -14 -13 -14 -13 -13 -13 -13 -12 -12 -12 -12 -11 -11 -12 -10 -10 -11 -11 -11
-14 -13 -13 -14 -15 -16 -15 -15 -15 -15 -15 -15 -15 -15 -15 -15 -16 -18 -20 -20 -20 -20 -19 -19 -18 -18 -18 -17 -17 -16 -15 -14 -14 -14 -14 -13 -14 -13 -13 -12 -11 -12 -11 -12 -11 -11 -11 -11 -11
-14 -14 -14 -15 -16 -16 -15 -15 -15 -15 -15 -15 -15 -15 -16 -17 -20 -22 -23 -24 -24 -23 -22 -21 -19 -19 -19 -18 -18 -17 -16 -15 -15 -15 -15 -14 -14 -13 -13 -13 -13 -13 -12 -12 -11 -11 -11 -11 -12
-14 -14 -15 -15 -16 -16 -15 -16 -15 -15 -16 -15 -16 -16 -17 -20 -23 -24 -25 -25 -25 -26 -25 -24 -22 -21 -20 -19 -18 -18 -17 -16 -16 -15 -15 -15 -15 -14 -14 -14 -13 -13 -12 -12 -11 -11 -11 -11 -11
-14 -14 -15 -16 -16 -16 -16 -16 -16 -16 -16 -16 -16 -17 -19 -22 -24 -25 -25 -26 -26 -26 -26 -26 -25 -23 -22 -20 -19 -19 -18 -17 -17 -16 -16 -16 -15 -15 -15 -14 -14 -14 -13 -12 -12 -11 -11 -12 -11
-15 -15 -16 -16 -16 -16 -16 -16 -16 -16 -16 -17 -17 -19 -22 -23 -24 -25 -26 -26 -27 -26 -26 -25 -26 -26 -23 -22 -21 -20 -19 -18 -18 -17 -17 -16 -16 -16 -15 -14 -14 -15 -14 -13 -13 -13 -12 -11 -11
-15 -15 -16 -16 -17 -17 -17 -16 -16 -16 -16 -18 -19 -21 -23 -24 -25 -25 -26 -26 -27 -27 -26 -26 -26 -26 -25 -24 -22 -21 -20 -20 -18 -18 -17 -17 -16 -15 -15 -16 -16 -15 -14 -14 -14 -15 -13 -12 -12
-15 -16 -16 -17 -17 -17 -17 -16 -16 -17 -17 -18 -20 -22 -24 -25 -25 -26 -26 -27 -27 -28 -28 -27 -26 -26 -26 -25 -24 -22 -21 -20 -19 -18 -18 -18 -17 -16 -15 -16 -16 -16 -15 -15 -15 -15 -14 -13 -12
-16 -16 -17 -17 -18 -17 -17 -16 -16 -17 -18 -19 -20 -23 -24 -25 -25 -26 -26 -26 -27 -28 -28 -27 -27 -27 -26 -26 -25 -23 -22 -21 -21 -19 -19 -19 -18 -17 -18 -17 -16 -16 -16 -16 -15 -16 -15 -14 -13
-16 -16 -17 -18 -18 -17 -17 -16 -17 -17 -19 -20 -20 -23 -24 -25 -25 -26 -26 -27 -27 -27 -28 -28 -28 -28 -28 -27 -26 -25 -23 -22 -21 -19 -18 -18 -19 -18 -18 -17 -17 -17 -17 -16 -16 -16 -15 -14 -14
-16 -17 -17 -18 -18 -17 -17 -17 -17 -18 -19 -20 -21 -23 -24 -25 -25 -26 -26 -26 -27 -27 -27 -27 -28 -27 -28 -28 -27 -25 -23 -22 -21 -20 -19 -18 -18 -18 -18 -18 -17 -17 -17 -17 -16 -16 -16 -16 -15
-17 -17 -18 -17 -18 -17 -17 -18 -19 -19 -21 -21 -22 -23 -24 -25 -25 -26 -26 -26 -26 -27 -27 -27 -27 -27 -27 -27 -27 -25 -24 -22 -21 -20 -19 -19 -19 -19 -18 -18 -16 -18 -17 -17 -16 -16 -16 -16 -15
-17 -17 -17 -17 -17 -18 -18 -18 -19 -21 -21 -21 -23 -23 -24 -25 -25 -26 -26 -26 -26 -26 -26 -26 -26 -27 -27 -27 -27 -25 -24 -22 -21 -20 -19 -19 -19 -19 -18 -18 -17 -18 -17 -17 -17 -17 -17 -16 -16
-17 -18 -18 -18 -18 -18 -18 -18 -20 -21 -21 -22 -23 -23 -24 -25 -25 -26 -26 -26 -26 -26 -26 -26 -26 -26 -26 -26 -26 -25 -23 -21 -21 -20 -20 -19 -19 -19 -19 -19 -18 -18 -18 -18 -17 -17 -17 -17 -17
-17 -17 -18 -18 -18 -18 -18 -19 -20 -20 -20 -22 -22 -23 -24 -24 -25 -25 -26 -25 -25 -25 -25 -25 -25 -25 -26 -25 -24 -23 -22 -21 -20 -20 -20 -20 -20 -19 -19 -19 -19 -19 -19 -18 -18 -17 -17 -17 -16
-17 -18 -18 -18 -19 -19 -18 -19 -20 -19 -20 -22 -22 -22 -23 -24 -24 -25 -25 -25 -25 -24 -24 -24 -24 -24 -25 -24 -23 -22 -21 -21 -20 -20 -19 -19 -19 -19 -19 -19 -19 -19 -19 -18 -17 -17 -17 -17 -16
-17 -17 -18 -19 -20 -20 -18 -20 -19 -19 -19 -20 -21 -21 -23 -23 -24 -24 -25 -25 -25 -24 -24 -24 -24 -23 -23 -23 -21 -21 -20 -20 -19 -19 -19 -19 -19 -19 -19 -19 -19 -18 -18 -18 -17 -17 -16 -17 -15
-17 -17 -18 -19 -19 -20 -20 -19 -19 -19 -19 -19 -20 -21 -22 -22 -22 -23 -23 -23 -23 -24 -23 -23 -24 -23 -23 -22 -21 -21 -20 -20 -20 -19 -19 -19 -19 -19 -19 -19 -19 -18 -18 -17 -17 -17 -17 -17 -17
Height
5771 5771 5771 5772 5776 5775 5775 5774 5772 5772 5771 5772 5772 5773 5773 5774 5774 5775 5777 5777 5778 5777 5778 5779 5781 5783 5784 5784 5786 5787 5790 5792 5793 5796 5797 5800 5803 5805 5807 5810 5813 5815 5816 5819 5820 5823 5825 5828 5830
5768 5769 5768 5768 5769 5769 5771 5769 5768 5768 5768 5767 5767 5767 5767 5767 5768 5766 5770 5771 5772 5773 5773 5774 5775 5777 5778 5780 5781 5782 5784 5786 5788 5790 5792 5794 5796 5801 5802 5805 5808 5810 5812 5815 5817 5820 5822 5824 5827
5765 5764 5765 5764 5765 5763 5763 5764 5762 5762 5761 5761 5760 5760 5759 5760 5762 5760 5763 5764 5764 5765 5767 5768 5769 5771 5772 5773 5775 5777 5777 5779 5782 5784 5786 5789 5791 5794 5797 5799 5802 5805 5808 5810 5812 5815 5818 5820 5822
5761 5761 5761 5759 5758 5757 5757 5758 5757 5755 5754 5754 5754 5752 5752 5752 5753 5754 5754 5755 5756 5756 5757 5759 5761 5763 5765 5767 5768 5770 5771 5773 5776 5778 5781 5784 5785 5788 5791 5794 5796 5799 5802 5805 5807 5810 5812 5814 5817
5757 5756 5756 5755 5753 5752 5751 5750 5750 5748 5747 5746 5746 5745 5741 5743 5743 5744 5743 5743 5745 5746 5747 5750 5752 5753 5756 5759 5761 5762 5764 5767 5769 5772 5775 5778 5781 5784 5785 5789 5791 5794 5797 5799 5801 5804 5807 5809 5812
5753 5752 5750 5749 5747 5748 5745 5744 5743 5742 5739 5736 5735 5734 5731 5730 5734 5731 5731 5732 5732 5733 5736 5737 5739 5743 5745 5748 5751 5754 5758 5759 5762 5765 5768 5772 5776 5778 5780 5783 5785 5788 5791 5793 5795 5797 5801 5803 5806
5746 5745 5744 5743 5741 5739 5738 5735 5733 5731 5729 5726 5723 5721 5718 5715 5719 5716 5716 5717 5718 5720 5723 5725 5726 5728 5732 5736 5739 5743 5748 5752 5754 5757 5760 5763 5767 5771 5774 5777 5780 5782 5785 5786 5788 5791 5794 5796 5799
5740 5739 5738 5736 5734 5731 5729 5725 5722 5719 5717 5713 5710 5707 5705 5705 5701 5701 5699 5700 5701 5704 5706 5711 5713 5714 5717 5721 5726 5731 5736 5741 5745 5748 5752 5755 5759 5762 5767 5771 5774 5775 5777 5779 5780 5783 5786 5790 5792
5735 5733 5731 5728 5725 5722 5719 5714 5710 5708 5704 5701 5698 5695 5689 5690 5686 5684 5684 5682 5684 5684 5688 5691 5696 5700 5703 5706 5711 5717 5723 5728 5734 5738 5742 5746 5751 5755 5758 5763 5767 5769 5770 5772 5773 5774 5778 5782 5786
5730 5727 5723 5719 5715 5711 5706 5702 5698 5695 5692 5690 5687 5682 5678 5676 5672 5671 5669 5667 5665 5668 5669 5670 5676 5682 5687 5691 5695 5701 5707 5714 5721 5726 5732 5737 5742 5747 5751 5754 5758 5760 5762 5764 5767 5769 5770 5773 5779
5723 5719 5715 5711 5706 5701 5697 5693 5689 5684 5681 5677 5674 5670 5665 5660 5655 5652 5651 5650 5649 5646 5650 5652 5655 5660 5666 5673 5679 5684 5691 5698 5706 5713 5719 5726 5732 5737 5742 5745 5748 5751 5755 5758 5761 5762 5765 5766 5771
5716 5712 5707 5703 5698 5693 5687 5683 5678 5673 5668 5662 5656 5651 5646 5641 5636 5629 5626 5625 5625 5627 5625 5630 5634 5640 5645 5652 5660 5667 5674 5680 5688 5697 5705 5712 5720 5725 5729 5734 5738 5743 5748 5753 5748 5752 5757 5760 5762
5709 5705 5699 5694 5688 5684 5679 5674 5667 5663 5656 5652 5644 5636 5628 5619 5612 5605 5598 5594 5595 5599 5602 5604 5610 5616 5624 5631 5640 5648 5656 5663 5671 5680 5690 5697 5705 5711 5718 5722 5729 5733 5737 5742 5740 5740 5744 5749 5752
5702 5697 5691 5686 5680 5675 5670 5666 5659 5652 5646 5640 5631 5622 5611 5599 5587 5575 5563 5560 5561 5565 5572 5577 5584 5591 5600 5609 5619 5628 5637 5646 5654 5663 5673 5683 5691 5698 5704 5710 5718 5724 5723 5726 5732 5739 5739 5739 5743
5696 5690 5684 5679 5673 5666 5662 5657 5651 5644 5636 5626 5615 5602 5588 5572 5556 5547 5540 5533 5531 5534 5540 5548 5557 5565 5576 5587 5597 5607 5617 5627 5637 5646 5657 5668 5676 5683 5690 5696 5703 5708 5715 5720 5722 5729 5730 5733 5736
5688 5683 5675 5669 5665 5658 5653 5647 5638 5632 5621 5610 5597 5583 5567 5550 5539 5532 5527 5521 5516 5513 5513 5518 5527 5538 5548 5562 5574 5586 5598 5608 5618 5629 5640 5651 5661 5669 5676 5684 5690 5696 5704 5709 5714 5720 5723 5729 5731
5681 5676 5668 5661 5656 5650 5643 5637 5628 5619 5606 5593 5580 5564 5548 5535 5526 5519 5513 5508 5503 5499 5497 5499 5502 5512 5523 5539 5552 5564 5577 5589 5601 5611 5623 5634 5645 5656 5668 5673 5679 5685 5691 5697 5705 5712 5715 5719 5724
5672 5667 5661 5653 5646 5640 5632 5626 5616 5605 5591 5578 5563 5547 5534 5524 5515 5507 5500 5495 5489 5483 5481 5481 5484 5490 5501 5515 5529 5543 5557 5570 5581 5594 5606 5618 5632 5642 5653 5659 5666 5673 5681 5687 5694 5702 5708 5707 5713
5665 5658 5651 5645 5639 5632 5624 5616 5605 5592 5578 5563 5548 5533 5522 5513 5504 5497 5489 5483 5477 5472 5469 5468 5468 5473 5482 5492 5507 5522 5539 5549 5563 5579 5592 5603 5616 5626 5637 5647 5654 5661 5670 5676 5680 5688 5697 5698 5706
5657 5650 5644 5636 5630 5622 5615 5607 5594 5580 5565 5551 5536 5522 5513 5504 5494 5486 5479 5473 5468 5463 5459 5456 5456 5459 5466 5475 5489 5503 5521 5538 5553 5566 5578 5589 5600 5611 5623 5632 5640 5650 5657 5663 5670 5678 5686 5691 5695
5650 5642 5635 5628 5621 5614 5605 5598 5584 5570 5555 5540 5526 5514 5505 5497 5487 5478 5471 5464 5459 5455 5451 5447 5445 5450 5455 5463 5474 5488 5506 5520 5535 5548 5562 5576 5592 5600 5610 5623 5631 5638 5646 5654 5660 5666 5673 5680 5687
5643 5635 5627 5619 5614 5606 5597 5587 5574 5559 5545 5531 5517 5506 5498 5490 5481 5473 5465 5459 5454 5449 5446 5442 5441 5444 5449 5456 5465 5478 5491 5508 5524 5542 5558 5574 5584 5594 5602 5612 5620 5628 5636 5645 5652 5657 5664 5670 5678
5636 5626 5619 5612 5607 5601 5590 5578 5564 5550 5535 5523 5510 5499 5492 5484 5476 5469 5462 5457 5451 5446 5442 5440 5441 5443 5447 5451 5459 5469 5483 5501 5519 5535 5549 5565 5578 5587 5597 5603 5613 5622 5630 5638 5644 5649 5656 5662 5668
5630 5621 5612 5606 5601 5594 5583 5572 5558 5542 5530 5516 5502 5493 5488 5480 5473 5466 5460 5454 5449 5444 5440 5439 5438 5439 5442 5447 5454 5464 5477 5494 5513 5530 5545 5559 5570 5580 5588 5594 5606 5614 5624 5632 5637 5641 5648 5652 5658
5624 5615 5606 5600 5592 5586 5578 5567 5556 5540 5526 5511 5498 5490 5485 5478 5472 5465 5458 5453 5447 5442 5439 5437 5436 5437 5438 5443 5451 5461 5475 5492 5510 5526 5541 5553 5565 5574 5582 5588 5597 5608 5617 5624 5628 5633 5638 5643 5648
5619 5611 5603 5593 5587 5582 5575 5564 5552 5538 5522 5508 5495 5489 5485 5479 5474 5466 5460 5453 5447 5441 5438 5436 5435 5435 5437 5443 5451 5461 5475 5492 5510 5525 5537 5548 5559 5568 5574 5581 5589 5599 5607 5614 5620 5625 5631 5635 5642
5615 5608 5602 5592 5584 5575 5571 5560 5549 5534 5519 5505 5498 5491 5487 5483 5476 5469 5461 5454 5448 5444 5440 5437 5437 5438 5440 5445 5453 5464 5479 5494 5509 5522 5535 5544 5553 5561 5569 5577 5585 5595 5601 5607 5613 5618 5625 5628 5630
5612 5605 5597 5589 5578 5568 5565 5556 5544 5533 5521 5509 5502 5495 5490 5486 5480 5473 5465 5458 5452 5448 5445 5442 5442 5444 5447 5451 5458 5470 5484 5497 5509 5521 5531 5540 5548 5556 5563 5571 5579 5587 5593 5600 5606 5612 5619 5622 5622
5608 5602 5594 5586 5578 5569 5559 5555 5545 5535 5525 5515 5506 5500 5495 5490 5484 5478 5470 5463 5458 5455 5453 5452 5451 5452 5455 5459 5467 5477 5488 5499 5509 5519 5527 5535 5543 5551 5559 5566 5573 5582 5588 5596 5601 5606 5609 5611 5612
5605 5598 5591 5583 5575 5570 5562 5555 5545 5537 5528 5520 5512 5506 5500 5495 5489 5483 5477 5471 5466 5463 5462 5461 5460 5461 5463 5468 5475 5483 5492 5500 5509 5517 5524 5532 5539 5547 5554 5562 5570 5577 5583 5588 5592 5596 5598 5602 5603
Wind_Speed
15 17 17 17 16 14 14 17 21 23 27 26 28 29 30 29 30 32 27 28 28 27 28 28 26 25 27 28 28 30 30 29 28 28 29 29 29 29 29 27 25 24 23 22 21 22 20 18 17
18 18 19 19 20 19 19 21 24 26 27 28 30 31 33 34 32 36 34 33 33 33 33 32 31 31 29 28 30 32 32 32 32 32 31 31 30 31 30 30 29 28 27 26 25 24 23 22 20
18 20 21 21 21 24 26 24 27 28 29 31 33 34 36 38 36 40 38 39 40 39 38 38 37 36 35 34 32 34 35 35 36 37 35 35 32 31 32 32 31 31 30 29 29 28 26 25 23
20 21 22 24 26 28 29 27 28 31 33 32 34 37 38 39 40 41 43 44 45 46 45 44 43 41 40 39 38 37 37 37 37 37 37 36 35 34 33 33 33 33 32 32 31 31 30 28 27
21 22 24 25 27 28 30 30 30 33 36 37 38 40 44 43 43 43 45 46 46 48 50 51 50 48 46 45 43 42 41 40 38 38 38 38 38 37 36 34 33 35 35 34 33 34 32 31 30
22 23 24 25 28 27 30 32 34 35 39 42 45 45 48 52 48 50 50 49 50 50 51 54 55 54 53 51 49 47 45 43 42 41 40 39 38 39 39 37 35 35 37 36 36 37 35 34 34
23 24 25 27 29 32 33 36 38 40 42 46 48 50 52 56 50 53 54 55 54 54 53 54 58 59 59 58 56 53 51 47 46 47 46 43 40 39 40 40 40 39 39 38 36 36 36 36 36
26 27 28 29 32 36 36 39 41 42 42 46 48 53 55 57 59 57 60 61 61 60 59 56 58 61 64 63 63 60 55 54 51 49 49 47 44 42 40 41 42 43 43 44 44 42 40 38 38
27 29 31 33 35 37 39 41 42 40 39 43 46 49 58 56 59 62 61 61 63 66 66 63 61 62 63 67 67 67 63 60 56 55 51 49 49 47 43 41 42 44 47 48 46 48 45 40 40
28 29 33 36 38 40 41 39 40 44 43 46 49 53 56 57 59 60 62 65 67 66 66 70 66 65 66 67 69 70 70 65 60 59 58 54 53 51 48 47 45 47 46 42 41 48 48 42 39
29 32 35 37 41 41 39 39 40 46 46 47 50 52 57 61 64 68 71 72 70 73 72 71 68 68 69 70 71 73 73 72 64 60 60 61 58 55 53 51 50 49 46 46 43 40 47 46 41
30 34 37 39 41 38 38 41 44 45 46 51 56 60 64 69 72 77 81 81 81 76 78 78 75 70 69 72 73 74 76 75 72 68 65 63 61 60 58 57 56 52 46 43 41 45 46 50 48
33 35 38 40 41 36 40 41 45 44 50 53 62 66 72 78 83 87 86 84 82 78 78 82 79 75 72 72 75 75 77 79 77 72 71 66 63 64 64 62 59 53 54 50 45 49 47 49 49
34 36 39 41 39 35 39 42 42 47 53 60 67 70 77 80 86 86 81 83 84 82 79 82 80 78 76 74 74 78 78 79 80 78 75 76 66 63 66 67 46 62 45 60 56 50 44 43 48
35 37 39 37 34 38 41 44 43 51 57 65 68 76 76 83 71 59 56 57 62 71 76 83 83 82 80 79 78 78 81 80 81 79 76 76 72 69 65 67 70 66 47 57 51 51 35 36 34
36 39 39 38 32 38 42 45 52 55 60 64 68 72 73 67 54 45 43 43 46 47 52 63 81 86 88 84 83 81 83 83 80 80 79 74 77 76 71 69 68 72 77 64 61 54 40 40 41
37 39 36 34 34 39 45 49 55 57 62 64 66 67 61 50 45 44 43 43 47 50 53 54 60 73 85 88 88 86 84 86 81 79 80 76 77 81 68 68 72 70 73 73 70 68 45 35 44
40 41 37 37 40 42 46 50 54 59 63 64 64 60 50 44 45 46 43 43 45 44 44 52 58 64 73 85 90 88 87 86 84 79 78 80 74 71 80 78 71 73 74 76 73 68 63 54 41
40 42 40 38 39 41 44 48 55 58 61 61 57 52 42 43 42 41 42 40 39 33 35 39 45 60 64 74 83 88 87 86 85 80 76 77 78 71 69 69 77 79 74 75 68 65 67 70 53
41 42 41 40 38 41 44 48 52 57 60 60 52 44 37 41 40 39 39 37 33 30 32 37 40 41 55 65 71 79 85 84 81 80 75 76 83 76 75 64 70 74 78 77 72 67 68 69 69
42 43 43 41 37 38 45 47 53 57 58 57 49 40 35 37 33 34 34 33 29 25 26 26 33 38 42 52 66 70 78 81 81 81 75 70 74 81 83 72 57 66 69 75 75 70 72 69 70
45 45 44 39 35 39 43 47 54 57 57 54 48 40 33 33 29 29 28 27 22 22 22 17 17 19 35 39 53 66 71 77 80 78 74 68 63 66 71 70 68 63 65 68 69 74 74 72 65
46 48 44 35 33 37 41 48 54 55 57 54 47 39 31 28 24 25 25 23 21 20 18 16 19 20 27 30 35 55 65 72 74 73 71 66 62 57 64 67 73 62 66 65 63 63 66 68 68
46 46 37 33 33 35 40 47 51 54 56 53 45 35 27 23 23 22 21 21 20 19 15 15 21 21 27 34 34 43 58 65 68 68 63 60 54 52 50 57 74 52 49 50 50 49 51 58 66
44 39 34 37 39 36 38 45 46 49 55 51 41 29 23 20 21 22 21 21 20 18 15 13 16 18 25 31 38 34 49 58 63 61 56 52 48 40 42 40 53 59 51 52 46 45 42 46 50
39 34 35 40 41 35 35 43 43 48 56 49 32 23 19 17 20 19 18 17 11 11 12 12 13 16 24 35 38 34 43 51 56 53 49 43 39 36 34 35 37 40 40 40 40 39 40 39 38
37 35 36 40 39 38 34 40 41 47 53 40 25 17 15 18 22 22 23 20 18 9 3 3 7 14 22 34 36 31 36 41 47 43 41 38 36 35 33 32 34 36 35 32 31 33 35 34 32
35 35 38 38 40 38 36 38 39 46 39 23 25 20 17 21 23 26 26 23 19 15 11 8 7 13 22 30 32 29 32 35 37 36 36 36 36 36 33 32 34 34 32 31 30 30 31 28 26
34 34 36 40 31 32 37 34 33 34 25 29 25 22 19 22 24 27 35 35 28 19 15 14 13 17 21 27 32 32 30 29 30 32 32 34 37 38 39 39 37 36 34 33 31 30 31 35 29
31 33 36 35 27 27 30 28 31 21 28 30 25 19 20 25 26 27 28 31 30 27 18 16 15 17 20 22 24 25 27 27 28 30 29 31 36 40 41 40 40 40 38 36 32 31 33 45 46
Wind_Direction
269 272 273 272 271 269 265 259 257 252 260 262 262 265 266 264 260 260 259 253 250 247 246 247 242 239 235 233 231 231 229 227 225 223 219 218 220 220 224 224 223 221 222 224 224 225 228 230 228
277 274 272 275 281 278 266 261 262 267 268 268 267 267 266 264 263 263 262 259 255 253 250 247 247 242 238 237 236 234 231 229 226 224 221 220 217 223 223 228 226 227 222 225 226 227 228 228 234
273 277 278 279 278 276 279 281 280 277 275 272 273 271 268 268 266 265 262 261 258 253 252 250 248 246 244 239 238 237 233 229 228 227 224 222 220 219 225 226 230 227 227 226 228 227 229 229 229
279 279 281 286 285 284 285 283 280 281 281 281 279 278 275 275 272 269 267 262 259 260 253 250 249 247 245 243 241 237 238 235 232 232 230 228 226 223 223 225 229 234 231 229 227 229 228 229 229
283 282 281 282 284 286 287 288 288 287 285 283 280 281 282 272 276 272 270 267 263 258 258 256 251 248 246 245 242 239 239 239 235 235 232 233 230 228 227 228 226 232 235 233 229 229 227 231 229
286 286 286 288 287 285 289 292 293 292 293 292 290 289 285 279 279 278 273 269 264 259 255 255 253 249 247 245 243 242 240 238 240 237 234 234 236 234 232 231 232 229 234 237 234 233 230 229 232
289 288 290 292 293 294 298 298 298 297 297 295 295 293 292 285 288 283 277 275 270 264 257 253 252 251 247 246 244 242 242 240 237 238 237 231 232 237 237 234 233 233 231 232 234 234 233 231 232
293 295 297 298 300 302 302 301 303 305 305 303 302 299 294 293 290 286 283 280 275 270 263 256 250 249 248 246 244 242 241 239 238 239 236 238 233 231 235 241 237 237 236 235 233 236 235 232 232
296 301 304 305 305 304 306 308 311 309 307 306 305 303 298 298 291 288 285 282 278 275 268 261 253 248 246 246 243 242 241 239 237 236 235 236 237 234 230 239 243 242 241 240 240 236 233 231 232
301 305 307 308 310 310 313 314 311 309 308 305 303 300 299 295 290 287 285 282 279 273 271 266 257 249 245 242 243 241 239 238 237 237 236 235 235 236 234 231 235 244 245 251 251 243 232 226 233
307 308 311 312 313 313 313 311 310 310 309 305 302 299 295 291 288 286 282 276 274 273 267 265 260 253 245 242 240 240 238 236 233 233 235 236 234 234 237 235 233 237 244 249 254 252 239 228 231
308 310 311 313 311 311 310 314 314 311 306 304 303 299 298 292 289 286 282 278 271 266 265 260 257 254 247 242 239 236 237 235 232 230 230 235 235 232 232 234 234 235 236 241 255 252 252 255 233
308 311 311 311 309 310 310 310 308 305 303 301 305 301 294 294 291 289 286 279 270 264 260 254 250 249 247 243 238 235 233 234 231 229 229 228 231 233 229 233 233 234 233 232 239 247 236 242 242
310 311 311 308 305 308 305 303 302 304 306 308 307 304 303 302 298 293 281 271 264 259 254 246 243 242 242 240 237 233 232 231 231 228 229 226 228 231 230 227 227 227 241 221 230 240 244 243 244
310 309 307 305 300 299 298 299 297 308 313 317 314 313 313 312 302 293 285 279 274 264 255 241 239 239 238 237 236 233 229 229 229 227 226 227 227 227 228 227 227 229 228 223 221 229 244 230 232
310 309 306 302 294 297 301 307 310 317 318 321 321 320 318 310 297 297 291 285 278 271 260 253 245 237 234 233 233 231 228 227 226 226 224 224 225 227 230 231 229 230 226 230 225 227 236 227 237
307 308 303 292 291 302 307 314 321 322 324 327 326 323 315 302 303 300 292 287 282 273 262 253 246 242 236 231 229 229 226 225 225 225 222 222 223 227 231 237 235 234 234 235 233 228 229 227 232
311 310 304 295 300 308 314 321 327 327 329 330 329 322 306 302 302 298 294 291 285 277 267 256 245 241 234 231 227 226 224 224 222 224 222 221 222 230 229 230 232 235 237 234 234 235 230 231 226
311 309 307 296 304 310 318 326 330 329 331 331 329 319 303 299 301 298 297 291 287 282 273 258 250 237 234 226 226 224 222 222 221 221 223 219 218 218 224 232 238 236 236 238 231 238 233 239 228
312 311 309 297 305 314 318 329 329 332 332 332 327 317 307 303 303 301 297 292 285 276 281 272 247 240 233 227 222 222 221 220 222 220 222 220 219 221 216 228 229 235 239 241 238 242 240 237 239
314 314 310 304 307 315 320 327 331 334 332 334 329 319 306 307 304 304 301 298 291 276 287 275 244 234 231 227 221 218 220 219 219 218 220 223 222 224 229 229 229 231 240 242 240 242 244 242 239
315 315 313 306 310 318 323 327 331 334 335 338 329 324 308 311 314 308 308 304 302 284 287 273 221 223 227 224 224 219 217 218 220 217 218 219 225 230 229 234 237 233 238 241 243 245 245 247 247
317 318 315 307 314 318 325 327 333 336 337 338 330 326 316 317 320 314 315 307 306 295 278 256 232 224 221 212 222 221 214 217 217 217 216 220 225 229 229 236 233 230 237 244 248 247 250 252 251
318 320 312 312 314 322 329 332 336 338 337 339 329 327 321 323 329 325 324 314 309 302 288 258 242 233 225 216 215 221 211 211 214 215 213 219 223 227 230 235 233 226 233 239 242 249 251 251 252
322 320 318 317 320 329 333 333 338 339 337 340 330 329 325 334 336 334 332 322 310 302 292 265 249 240 225 211 212 206 204 206 210 211 211 218 224 225 225 231 235 235 239 238 245 249 250 251 252
327 324 326 324 322 324 333 335 341 340 340 341 339 335 333 354 357 359 357 347 348 311 291 272 248 220 213 204 195 188 193 200 205 206 209 216 221 221 220 216 216 223 225 230 233 238 242 243 243
327 325 327 325 322 325 336 339 345 344 346 352 354 350 353 11 7 16 14 14 12 17 2 263 222 200 194 188 173 169 185 197 202 203 208 215 217 217 213 210 210 215 218 224 232 239 242 245 244
324 325 330 333 330 332 337 343 350 353 360 16 3 7 21 19 15 22 13 25 26 40 55 62 118 151 163 160 149 159 181 191 197 202 210 215 216 218 219 218 219 219 220 224 229 237 241 244 237
324 327 330 330 334 331 335 350 357 9 24 13 13 18 36 27 32 27 33 38 38 52 67 80 103 121 131 142 148 156 165 177 190 200 207 213 216 217 219 222 225 226 225 225 227 234 229 240 233
326 329 330 333 340 336 338 358 11 29 36 30 26 35 33 36 33 36 45 52 48 42 55 76 89 106 120 132 145 158 170 180 190 197 203 206 210 214 217 219 220 223 225 225 225 230 236 238 229